Stations météo

Publicité
Istres, France (7647): Température de l'air & dewpoint: 13.04.2019 04:00:00 - 19.04.2019 04:00:00 (CEST)Istres, France (7647): Température de l'air 5cm: 13.04.2019 04:00:00 - 19.04.2019 04:00:00 (CEST)Istres, France (7647): Vitesse du vent & gusts: 13.04.2019 04:00:00 - 19.04.2019 04:00:00 (CEST)Istres, France (7647): Direction du vent: 13.04.2019 04:00:00 - 19.04.2019 04:00:00 (CEST)Istres, France (7647): reduced air pressure: 13.04.2019 04:00:00 - 19.04.2019 04:00:00 (CEST)Istres, France (7647): visibility: 13.04.2019 04:00:00 - 19.04.2019 04:00:00 (CEST)Istres, France (7647): Quantités de précipitations: 13.04.2019 04:00:00 - 19.04.2019 04:00:00 (CEST)
Date & Time tt [°C] td [°C] tt 5cm [°C] ff [km/h] ff [knt] fx [km/h] fx [knt] dd ppp [hPa] vv [km] rr [mm]
19.04.2019 04:00:00 11,6 5,5 10,2 3 2 11 6 SW 1022,9 29 0,0
19.04.2019 03:00:00 13,2 3,5 10,2 6 4 13 7 NNE 1022,4 39 0,0
19.04.2019 02:00:00 11,4 4,6 10,4 11 6 18 10 NNE 1022,2 20 0,0
19.04.2019 01:00:00 11,5 7,6 10,5 13 7 17 9 N 1022,2 14 0,0
19.04.2019 00:00:00 11,5 8,7 10,8 13 7 18 10 N 1022,1 11 0,0
18.04.2019 23:00:00 12,7 9,9 11,1 9 5 18 10 NW 1022,1 13 0,0
18.04.2019 22:00:00 13,2 9,8 11,7 12 6 16 8 WNW 1021,8 15 0,0
18.04.2019 21:00:00 14,7 10,1 13,2 8 4 17 9 W 1021,1 20 0,0
18.04.2019 20:00:00 17,9 9,0 16,3 4 2 11 6 NW 1020,4 29 0,0
18.04.2019 19:00:00 19,1 9,0 21,1 8 5 32 18 S 1019,9 29 0,0
18.04.2019 18:00:00 19,4 10,1 22,5 26 14 44 24 SSE 1019,6 21 0,0
18.04.2019 17:00:00 20,6 7,9 22,4 29 16 48 26 SE 1019,4 43 0,0
18.04.2019 16:00:00 19,6 11,1 24,7 21 11 33 18 SSE 1020,1 20 0,0
18.04.2019 15:00:00 20,1 10,2 24,6 18 10 35 19 S 1020,6 49 0,0
18.04.2019 14:00:00 19,8 8,2 26,6 21 11 32 17 S 1020,7 20 0,0
18.04.2019 13:00:00 20,6 5,8 25,5 19 10 28 15 S 1020,7 20 0,0
18.04.2019 12:00:00 19,9 4,8 24,2 10 5 21 11 E 1021,0 20 0,0
18.04.2019 11:00:00 18,6 5,4 21,7 9 5 19 11 ESE 1021,3 37 0,0
18.04.2019 10:00:00 17,0 5,9 18,1 6 4 13 7 E 1021,3 55 0,0
18.04.2019 09:00:00 13,4 7,4 10,4 8 4 11 6 NE 1021,0 20 0,0
18.04.2019 08:00:00 9,6 6,3 8,2 8 4 15 8 NNE 1020,9 18 0,0
18.04.2019 07:00:00 8,8 5,9 7,7 8 4 14 8 NNE 1020,1 33 0,0
18.04.2019 06:00:00 8,5 6,5 7,7 10 5 14 8 NNE 1020,0 28 0,0
18.04.2019 05:00:00 8,8 7,2 8,1 9 5 12 7 NNE 1020,0 21 0,0
18.04.2019 04:00:00 9,4 8,2 8,4 6 3 11 6 NNE 1020,2 18 0,0
18.04.2019 03:00:00 9,2 8,1 8,4 8 4 11 6 NNE 1020,8 11 0,0
18.04.2019 02:00:00 9,7 8,5 8,8 8 4 11 6 NNE 1021,3 10 0,0
18.04.2019 01:00:00 10,5 9,4 9,9 8 4 11 6 NNE 1021,4 11 0,0
18.04.2019 00:00:00 11,4 10,1 10,1 6 4 9 5 NE 1021,1 12 0,0
17.04.2019 23:00:00 12,6 10,8 9,9 6 4 9 5 ESE 1021,2 13 0,0
17.04.2019 22:00:00 12,8 9,8 11,0 7 4 13 7 E 1021,0 34 0,0
17.04.2019 21:00:00 13,3 10,1 12,4 8 5 20 11 SSE 1020,2 41 0,0
17.04.2019 20:00:00 14,2 10,2 13,9 14 7 22 12 SSE 1019,6 44 0,0
17.04.2019 19:00:00 14,9 9,0 16,0 16 8 27 15 S 1019,5 50 0,0
17.04.2019 18:00:00 15,7 9,6 17,8 20 11 34 18 S 1019,4 52 0,0
17.04.2019 17:00:00 16,7 8,1 21,7 21 11 31 17 S 1019,5 49 0,0
17.04.2019 16:00:00 17,3 9,2 23,5 22 12 32 18 SSE 1020,0 26 0,0
17.04.2019 15:00:00 17,7 9,8 24,3 22 12 36 19 S 1020,3 26 0,0
17.04.2019 14:00:00 17,9 7,0 24,7 26 14 36 19 S 1020,4 20 0,0
17.04.2019 13:00:00 18,2 8,2 24,6 26 14 41 22 S 1020,8 28 0,0
17.04.2019 12:00:00 18,3 5,8 23,5 21 11 31 17 S 1020,8 20 0,0
17.04.2019 11:00:00 17,1 8,0 20,1 9 5 22 12 SE 1020,7 28 0,0
17.04.2019 10:00:00 15,5 8,2 15,7 11 6 20 11 E 1020,5 19 0,0
17.04.2019 09:00:00 13,0 7,2 12,0 12 7 18 10 ENE 1020,3 32 0,0
17.04.2019 08:00:00 9,3 6,9 6,8 7 4 16 9 NNE 1020,2 20 0,0
17.04.2019 07:00:00 7,2 5,8 6,4 10 5 20 11 NNE 1020,0 18 0,0
17.04.2019 06:00:00 6,7 5,5 6,1 11 6 15 8 NNE 1020,0 17 0,0
17.04.2019 05:00:00 7,1 5,7 5,6 8 5 11 6 NNE 1020,3 15 0,0
17.04.2019 04:00:00 7,4 6,0 5,6 6 4 12 7 NE 1020,5 10 0,0
17.04.2019 03:00:00 7,9 6,5 6,9 10 5 13 7 NNE 1020,6 12 0,0
17.04.2019 02:00:00 9,5 7,4 7,2 6 3 10 5 N 1021,2 12 0,0
17.04.2019 01:00:00 10,5 7,7 7,1 5 3 11 6 WNW 1021,3 13 0,0
17.04.2019 00:00:00 9,7 7,3 7,1 6 4 9 5 W 1021,2 15 0,0
16.04.2019 23:00:00 11,5 7,2 7,8 3 1 9 5 NNW 1021,0 22 0,0
16.04.2019 22:00:00 11,9 7,6 9,8 8 4 10 5 W 1021,0 34 0,0
16.04.2019 21:00:00 13,7 7,7 10,7 6 4 11 6 WNW 1020,6 48 0,0
16.04.2019 20:00:00 16,3 7,2 15,7 9 5 17 9 NNW 1020,1 48 0,0
16.04.2019 19:00:00 17,3 6,8 19,2 13 7 21 11 NW 1020,0 52 0,0
16.04.2019 18:00:00 17,9 6,7 18,6 11 6 19 11 WNW 1020,0 57 0,0
16.04.2019 17:00:00 17,3 6,2 22,1 10 5 24 13 W 1020,1 55 0,0
16.04.2019 16:00:00 18,1 7,2 21,9 11 6 20 11 SW 1020,4 57 0,0
16.04.2019 15:00:00 16,6 5,8 21,3 9 5 16 8 SW 1020,8 38 0,0
16.04.2019 14:00:00 17,0 6,2 20,4 4 2 13 7 SSE 1020,8 52 0,0
16.04.2019 13:00:00 15,6 5,5 16,6 3 2 12 6 SSW 1021,1 52 0,0
16.04.2019 12:00:00 14,5 6,8 15,1 6 3 14 8 ENE 1021,2 44 0,0
16.04.2019 11:00:00 13,7 6,5 14,3 6 4 14 8 ENE 1020,8 41 0,0
16.04.2019 10:00:00 13,2 6,8 12,9 9 5 14 8 NE 1020,2 30 0,0
16.04.2019 09:00:00 12,2 7,5 10,7 8 4 16 8 NNE 1019,7 29 0,0
16.04.2019 08:00:00 11,3 8,0 10,7 7 4 13 7 NNE 1019,3 15 0,0
16.04.2019 07:00:00 11,0 7,9 10,6 8 5 11 6 NW 1018,5 28 0,0
16.04.2019 06:00:00 11,8 7,7 10,6 8 4 13 7 ENE 1018,3 28 0,0
16.04.2019 05:00:00 11,4 7,9 11,1 6 3 9 5 NNE 1018,7 32 0,0
16.04.2019 04:00:00 11,5 8,2 11,3 6 3 12 7 NNE 1018,5 25 0,0
16.04.2019 03:00:00 11,7 8,7 11,4 8 4 10 6 NNE 1018,7 22 0,0
16.04.2019 02:00:00 12,3 8,8 11,7 3 2 11 6 WNW 1018,8 20 0,0
16.04.2019 01:00:00 12,8 8,7 12,2 8 4 13 7 E 1018,4 30 0,0
16.04.2019 00:00:00 13,2 9,6 12,8 10 6 19 10 ENE 1018,7 34 0,0
15.04.2019 23:00:00 13,4 9,3 12,7 11 6 16 9 ESE 1018,6 37 0,0
15.04.2019 22:00:00 13,3 9,4 12,6 12 6 22 12 ESE 1018,8 37 0,0
15.04.2019 21:00:00 13,2 9,1 12,7 13 7 23 12 SE 1018,7 38 0,0
15.04.2019 20:00:00 13,7 8,9 13,4 16 9 31 17 SSE 1018,5 41 0,0
15.04.2019 19:00:00 14,6 8,5 15,7 22 12 34 19 S 1018,2 47 0,0
15.04.2019 18:00:00 15,0 7,5 16,9 24 13 40 22 SSE 1018,2 41 0,0
15.04.2019 17:00:00 15,7 7,2 18,1 26 14 45 24 SSE 1018,1 54 0,0
15.04.2019 16:00:00 16,6 5,8 21,2 29 16 45 24 SSE 1018,2 36 0,0
15.04.2019 15:00:00 17,1 7,7 22,9 28 15 41 22 S 1018,6 20 0,0
15.04.2019 14:00:00 16,8 8,0 23,4 27 14 40 21 S 1018,7 33 0,0
15.04.2019 13:00:00 17,3 7,9 21,4 23 13 35 19 SSE 1018,6 35 0,0
15.04.2019 12:00:00 16,8 7,2 20,0 17 9 29 15 ESE 1018,8 38 0,0
15.04.2019 11:00:00 15,1 5,6 18,4 15 8 24 13 E 1018,8 20 0,0
15.04.2019 10:00:00 12,9 1,2 12,5 8 4 22 12 ENE 1018,7 18 0,0
15.04.2019 09:00:00 9,2 -0,7 8,1 14 8 22 12 NE 1018,7 12 0,0
15.04.2019 08:00:00 5,9 -1,3 3,4 18 10 28 15 NNE 1018,3 18 0,0
15.04.2019 07:00:00 4,2 -1,8 3,0 15 8 24 13 N 1017,6 18 0,0
15.04.2019 06:00:00 4,0 -1,8 2,2 13 7 19 10 N 1017,3 20 0,0
15.04.2019 05:00:00 5,3 -2,3 3,1 9 5 21 12 N 1017,3 22 0,0
15.04.2019 04:00:00 7,1 -2,9 5,9 17 9 32 18 NNW 1017,4 24 0,0
15.04.2019 03:00:00 7,9 -3,0 6,5 24 13 47 26 NNW 1017,2 25 0,0
15.04.2019 02:00:00 8,7 -3,2 8,0 40 21 55 30 NNW 1016,8 24 0,0
15.04.2019 01:00:00 8,8 -3,1 8,0 25 14 54 29 N 1017,1 27 0,0
15.04.2019 00:00:00 9,7 -3,6 9,0 30 16 53 29 NNW 1016,2 30 0,0
14.04.2019 23:00:00 10,7 -4,2 9,9 41 22 60 32 NNW 1016,0 32 0,0
14.04.2019 22:00:00 11,0 -4,7 10,3 38 20 72 39 NNW 1015,8 35 0,0
14.04.2019 21:00:00 11,7 -7,2 11,1 41 22 67 36 N 1014,4 42 0,0
14.04.2019 20:00:00 13,4 -8,5 12,9 31 17 62 33 NNW 1013,7 38 0,0
14.04.2019 19:00:00 14,8 -8,0 16,0 38 21 59 32 N 1013,2 17 0,0
14.04.2019 18:00:00 15,5 -11,9 19,1 34 18 53 29 NNW 1013,1 18 0,0
14.04.2019 17:00:00 15,8 -9,2 19,8 33 18 58 32 NNW 1013,0 18 0,0
14.04.2019 16:00:00 15,3 -11,2 19,8 40 22 66 35 NNW 1013,4 16 0,0
14.04.2019 15:00:00 14,9 -9,3 19,1 46 25 66 35 NNW 1013,7 19 0,0
14.04.2019 14:00:00 14,8 -8,6 18,4 42 23 59 32 NW 1013,7 19 0,0
14.04.2019 13:00:00 12,9 -8,3 16,2 39 21 62 33 NNW 1013,3 20 0,0
14.04.2019 12:00:00 11,6 -6,8 14,1 40 22 59 32 NNW 1013,4 20 0,0
14.04.2019 11:00:00 10,8 -4,9 11,8 44 24 63 34 NNW 1013,7 20 0,0
14.04.2019 10:00:00 9,1 -4,5 8,3 35 19 61 33 NNW 1013,9 31 0,0
14.04.2019 09:00:00 7,7 -4,1 8,0 34 18 56 31 NNW 1013,5 22 0,0
14.04.2019 08:00:00 7,5 -3,7 6,6 30 16 53 28 NNW 1013,9 20 0,0
14.04.2019 07:00:00 7,5 -3,1 6,8 30 16 51 28 N 1013,7 20 0,0
14.04.2019 06:00:00 8,2 -3,0 7,5 28 15 40 22 NNW 1013,7 21 0,0
14.04.2019 05:00:00 8,8 -2,8 7,6 17 9 29 15 NNW 1013,9 21 0,0
14.04.2019 04:00:00 9,6 -3,0 8,8 24 13 41 22 NNW 1013,9 23 0,0
14.04.2019 03:00:00 10,3 -3,1 9,6 28 15 42 23 NNW 1013,6 24 0,0
14.04.2019 02:00:00 10,9 -2,2 10,1 27 15 40 22 NNW 1014,1 24 0,0
14.04.2019 01:00:00 11,3 -2,2 10,4 28 15 42 23 NNW 1014,6 25 0,0
14.04.2019 00:00:00 11,9 -2,4 11,0 24 13 42 23 NNW 1014,4 26 0,0
13.04.2019 23:00:00 12,6 -2,9 9,9 23 12 36 19 NNW 1014,3 30 0,0
13.04.2019 22:00:00 11,9 -1,0 10,6 17 9 37 20 WNW 1014,6 28 0,0
13.04.2019 21:00:00 13,9 -0,9 12,8 25 13 50 27 NW 1013,8 26 0,0
13.04.2019 20:00:00 15,6 -1,1 15,0 34 18 50 27 NNW 1013,0 25 0,0
13.04.2019 19:00:00 17,3 -0,9 18,6 35 19 51 28 N 1012,8 26 0,0
13.04.2019 18:00:00 18,6 0,2 22,7 29 16 47 26 NNW 1012,9 17 0,0
13.04.2019 17:00:00 19,2 -2,5 23,1 34 19 61 33 NNW 1012,9 15 0,0
13.04.2019 16:00:00 18,8 -2,2 22,8 41 22 58 31 NNW 1013,4 16 0,0
13.04.2019 15:00:00 17,2 -1,0 21,9 34 18 58 31 N 1014,3 14 0,0
13.04.2019 14:00:00 16,6 0,2 21,7 36 19 53 29 NW 1014,6 14 0,0
13.04.2019 13:00:00 16,1 1,4 20,3 31 17 45 24 NNW 1014,7 14 0,0
13.04.2019 12:00:00 15,1 1,2 18,5 32 18 50 27 NNW 1014,9 14 0,0
13.04.2019 11:00:00 13,5 0,1 16,8 30 16 46 25 NNW 1015,2 14 0,0
13.04.2019 10:00:00 12,4 0,8 14,3 29 15 40 22 NNW 1015,1 14 0,0
13.04.2019 09:00:00 10,7 0,1 11,5 24 13 39 21 NNW 1014,9 13 0,0
13.04.2019 08:00:00 9,5 0,4 8,4 13 7 29 15 NNW 1014,4 15 0,0
13.04.2019 07:00:00 9,5 -0,4 8,2 17 9 32 17 NNW 1013,8 19 0,0
13.04.2019 06:00:00 9,9 -0,3 9,0 21 12 42 23 NNW 1013,3 20 0,0
13.04.2019 05:00:00 10,7 -0,5 9,9 27 15 45 25 NNW 1013,6 21 0,0
13.04.2019 04:00:00 11,1 -0,4 10,1 28 15 39 21 NNW 1013,9 22 0,0

tt = Température de l'air
td = dewpoint
tt 5cm = Température de l'air 5cm
ff = Vitesse du vent
fx = gusts
dd = Direction du vent
ppp = reduced air pressure
vv = visibility
rr = Quantités de précipitations

stations d'obs. à proximité